Regional Weather Roundup
Issued by NWS

Home | Current Version | Previous Version | Graphics & Text | Print | Product List | Glossary On
Versions: 1 2 3 4 5 6 7 8 9 10 11 12 13 14 15 16 17 18 19 20 21 22 23 24 25 26 27 28 29 30 31 32 33 34 35 36 37 38 39 40 41 42 43 44 45 46 47 48 49 50
000
ASUS43 KIND 240500
RWRIN

WEATHER ROUNDUP FOR INDIANA
NATIONAL WEATHER SERVICE INDIANAPOLIS IN
100 AM EDT MON JUL 24 2017

NOTE: "FAIR" INDICATES FEW OR NO CLOUDS BELOW 12,000 FEET WITH NO
SIGNIFICANT WEATHER AND/OR OBSTRUCTIONS TO VISIBILITY.

* - STATION DOES NOT REPORT WEATHER SUCH AS PRECIPITATION OR FOG.

+ - STATION NOT QUALITY CONTROLLED BY THE NATIONAL WEATHER SERVICE.
    USE DATA WITH CAUTION...ESPECIALLY DEWPOINT AND RELATIVE
    HUMIDITY OBSERVATIONS.

INZ001>003-010>013-019-020-240600-
NORTHWEST INDIANA

CITY           SKY/WX    TMP DP  RH WIND       PRES   REMARKS
MICHIGAN CITY+ PTCLDY    70  68  94 N8        29.87R
MONTICELLO +   CLEAR     68  66  94 CALM      29.86R
RENSSELAER +   MOCLDY    68  64  88 NW3       29.88R

$$

LMZ046-743>745-240600-
SOUTHERN LAKE MICHIGAN

STATION/POSITION TIME  TEMP    WIND        PRES    WAVE
                       AIR SEA DIR/SP/G            HT
                 (UTC) (F)     (DEG/KT/KT) (MB)    (FT)
BURNS HARBOR     0440   74      10/ 13/ 15 1011.9R
MICHIGAN CITY    0430   73     360/ 18/ 20   N/A
5NW MICH CITY    0450   73 75   20/ 16/ 19   N/A     2

$$

INZ004-005-014>016-021>024-240600-
NORTH CENTRAL INDIANA

CITY           SKY/WX    TMP DP  RH WIND       PRES   REMARKS
GOSHEN         MOCLDY    69  63  81 NW5       29.85R
SOUTH BEND     MOCLDY    70  66  87 NW8       29.87R

$$

INZ006>009-017-018-025>027-240600-
NORTHEAST INDIANA

CITY           SKY/WX    TMP DP  RH WIND       PRES   REMARKS
FORT WAYNE     PTCLDY    71  67  87 W5        29.83S
KENDALLVILLE + PTCLDY    68  63  83 CALM      29.85R

$$

INZ028-029-035-036-043>045-051>053-240600-
WEST CENTRAL INDIANA

CITY           SKY/WX    TMP DP  RH WIND       PRES   REMARKS
LAFAYETTE      CLEAR     67  66  97 W3        29.86R
TERRE HAUTE    CLOUDY    71  65  81 NW6       29.87R

$$

INZ030>032-037>040-046>048-054>057-064-065-240600-
CENTRAL INDIANA

CITY           SKY/WX    TMP DP  RH WIND       PRES   REMARKS
GREENWOOD *+   CLOUDY   N/A N/A N/A CALM      29.87R
INDIANAPOLIS   PTCLDY    74  71  91 NW5       29.86R
-EAGLE CREEK   CLOUDY    75  67  76 CALM      29.86R
KOKOMO +         N/A     69  65  86 MISG        N/A
MT COMFORT *+  CLOUDY    72  72 100 NW3       29.87R
SHELBYVILLE    PTCLDY    72  69  90 S5        29.86R

$$

INZ033-034-041-042-049-050-058-059-240600-
EAST CENTRAL INDIANA

CITY           SKY/WX    TMP DP  RH WIND       PRES   REMARKS
MUNCIE         CLEAR     71  67  87 S3        29.86R
RICHMOND +     PTCLDY    68  68 100 W5        29.89R

$$

INZ060-061-067>069-081>083-085>088-240600-
SOUTHWEST INDIANA

CITY           SKY/WX    TMP DP  RH WIND       PRES   REMARKS
EVANSVILLE     CLEAR     75  71  87 SW3       29.89R
HUNTINGBURG *+ CLEAR     73  72  96 S6        29.87F

$$

INZ062-063-066-070>080-084-089>092-240600-
SOUTH CENTRAL AND SOUTHEAST INDIANA

CITY           SKY/WX    TMP DP  RH WIND       PRES   REMARKS
BLOOMINGTON    CLOUDY    72  68  87 W3        29.88R
MADISON *+     CLEAR     70  68  94 CALM      29.90R
SEYMOUR +      CLEAR    N/A N/A N/A CALM      29.86R

$$





USA.gov is the U.S. government's official web portal to all federal, state and local government web resources and services.